TimePDT,TemperatureF,Dew PointF,Humidity,Sea Level PressureIn,VisibilityMPH,Wind Direction,Wind SpeedMPH,Gust SpeedMPH,PrecipitationIn,Events,Conditions,WindDirDegrees,DateUTC
12:15 AM,59.0,57.2,94,30.11,7.0,North,10.4,-,N/A,,Overcast,360,2013-07-02 07:15:00
12:35 AM,59.0,57.2,94,30.11,10.0,North,11.5,16.1,N/A,,Overcast,360,2013-07-02 07:35:00
12:55 AM,59.0,57.2,94,30.10,10.0,North,9.2,-,N/A,,Overcast,350,2013-07-02 07:55:00
1:15 AM,59.0,57.2,94,30.10,10.0,North,8.1,-,N/A,,Overcast,350,2013-07-02 08:15:00
1:35 AM,59.0,57.2,94,30.10,10.0,North,4.6,-,N/A,,Overcast,360,2013-07-02 08:35:00
1:55 AM,59.0,57.2,94,30.11,7.0,NNW,6.9,-,N/A,,Overcast,340,2013-07-02 08:55:00
2:15 AM,59.0,57.2,94,30.10,10.0,NNW,6.9,-,N/A,,Overcast,340,2013-07-02 09:15:00
2:35 AM,59.0,55.4,88,30.10,10.0,North,4.6,-,N/A,,Overcast,360,2013-07-02 09:35:00
2:55 AM,59.0,57.2,94,30.09,10.0,North,4.6,-,N/A,,Overcast,350,2013-07-02 09:55:00
3:15 AM,59.0,57.2,94,30.10,10.0,North,5.8,-,N/A,,Overcast,360,2013-07-02 10:15:00
3:35 AM,59.0,57.2,94,30.10,10.0,North,4.6,-,N/A,,Overcast,360,2013-07-02 10:35:00
3:55 AM,59.0,55.4,88,30.10,10.0,NNW,8.1,-,N/A,,Overcast,340,2013-07-02 10:55:00
4:15 AM,59.0,57.2,94,30.11,10.0,NNW,5.8,-,N/A,,Overcast,340,2013-07-02 11:15:00
4:35 AM,59.0,55.4,88,30.11,10.0,NNW,8.1,-,N/A,,Overcast,340,2013-07-02 11:35:00
4:55 AM,59.0,55.4,88,30.11,10.0,North,9.2,-,N/A,,Overcast,350,2013-07-02 11:55:00
5:15 AM,59.0,55.4,88,30.11,10.0,North,8.1,-,N/A,,Overcast,360,2013-07-02 12:15:00
5:35 AM,59.0,55.4,88,30.11,10.0,North,5.8,-,N/A,,Overcast,350,2013-07-02 12:35:00
5:55 AM,59.0,57.2,94,30.12,7.0,North,6.9,-,N/A,,Overcast,360,2013-07-02 12:55:00
6:15 AM,59.0,57.2,94,30.13,7.0,North,8.1,-,N/A,,Overcast,360,2013-07-02 13:15:00
6:35 AM,59.0,57.2,94,30.13,7.0,North,8.1,-,N/A,,Overcast,350,2013-07-02 13:35:00
6:55 AM,59.0,55.4,88,30.13,7.0,North,5.8,-,N/A,,Overcast,360,2013-07-02 13:55:00
7:15 AM,59.0,55.4,88,30.14,7.0,North,5.8,-,N/A,,Overcast,350,2013-07-02 14:15:00
7:35 AM,59.0,57.2,94,30.13,7.0,North,8.1,-,N/A,,Overcast,360,2013-07-02 14:35:00
7:55 AM,59.0,57.2,94,30.14,10.0,North,4.6,-,N/A,,Overcast,360,2013-07-02 14:55:00
8:15 AM,59.0,57.2,94,30.13,10.0,North,5.8,-,N/A,,Overcast,360,2013-07-02 15:15:00
8:35 AM,59.0,57.2,94,30.14,10.0,North,4.6,-,N/A,,Overcast,360,2013-07-02 15:35:00
8:55 AM,60.8,57.2,88,30.14,10.0,North,3.5,-,N/A,,Overcast,10,2013-07-02 15:55:00
9:15 AM,60.8,57.2,88,30.13,10.0,NNW,6.9,-,N/A,,Overcast,340,2013-07-02 16:15:00
9:35 AM,60.8,57.2,88,30.13,10.0,NNW,10.4,-,N/A,,Overcast,330,2013-07-02 16:35:00
9:55 AM,60.8,55.4,82,30.13,10.0,NNW,9.2,-,N/A,,Overcast,330,2013-07-02 16:55:00
10:15 AM,60.8,57.2,88,30.13,10.0,NNW,11.5,-,N/A,,Overcast,330,2013-07-02 17:15:00
10:35 AM,60.8,57.2,88,30.14,10.0,North,13.8,-,N/A,,Overcast,350,2013-07-02 17:35:00
10:55 AM,60.8,57.2,88,30.14,10.0,North,13.8,21.9,N/A,,Overcast,350,2013-07-02 17:55:00
11:15 AM,62.6,57.2,82,30.14,10.0,North,13.8,20.7,N/A,,Overcast,350,2013-07-02 18:15:00
11:35 AM,62.6,57.2,82,30.15,10.0,NNW,15.0,25.3,N/A,,Overcast,340,2013-07-02 18:35:00
11:55 AM,62.6,57.2,82,30.15,10.0,North,16.1,25.3,N/A,,Mostly Cloudy,360,2013-07-02 18:55:00
12:15 PM,62.6,57.2,82,30.14,10.0,North,17.3,27.6,N/A,,Mostly Cloudy,350,2013-07-02 19:15:00
12:35 PM,64.4,57.2,77,30.14,10.0,NNW,20.7,26.5,N/A,,Scattered Clouds,340,2013-07-02 19:35:00
12:55 PM,64.4,57.2,77,30.13,10.0,NNW,20.7,27.6,N/A,,Clear,340,2013-07-02 19:55:00
1:15 PM,64.4,59.0,83,30.14,10.0,NNW,16.1,24.2,N/A,,Clear,340,2013-07-02 20:15:00
1:35 PM,64.4,59.0,83,30.14,10.0,NNW,19.6,29.9,N/A,,Clear,340,2013-07-02 20:35:00
1:55 PM,64.4,59.0,83,30.15,10.0,North,19.6,27.6,N/A,,Clear,350,2013-07-02 20:55:00
2:15 PM,64.4,59.0,83,30.15,10.0,NNW,17.3,21.9,N/A,,Clear,340,2013-07-02 21:15:00
2:35 PM,64.4,59.0,83,30.15,10.0,NNW,23.0,31.1,N/A,,Clear,340,2013-07-02 21:35:00
2:55 PM,64.4,59.0,83,30.15,10.0,NNW,19.6,32.2,N/A,,Clear,340,2013-07-02 21:55:00
3:15 PM,64.4,59.0,83,30.15,10.0,NNW,23.0,29.9,N/A,,Clear,340,2013-07-02 22:15:00
3:35 PM,64.4,59.0,83,30.15,10.0,NNW,18.4,29.9,N/A,,Clear,340,2013-07-02 22:35:00
3:55 PM,62.6,59.0,88,30.14,10.0,NNW,18.4,27.6,N/A,,Clear,340,2013-07-02 22:55:00
4:15 PM,64.4,59.0,83,30.14,10.0,NNW,18.4,25.3,N/A,,Clear,340,2013-07-02 23:15:00
4:35 PM,62.6,59.0,88,30.13,7.0,NNW,24.2,29.9,N/A,,Clear,340,2013-07-02 23:35:00
4:55 PM,64.4,59.0,83,30.14,10.0,North,13.8,28.8,N/A,,Clear,350,2013-07-02 23:55:00
5:15 PM,64.4,57.2,77,30.13,10.0,North,16.1,23.0,N/A,,Clear,350,2013-07-03 00:15:00
5:35 PM,62.6,57.2,82,30.13,10.0,North,19.6,27.6,N/A,,Clear,350,2013-07-03 00:35:00
5:55 PM,62.6,57.2,82,30.12,10.0,North,16.1,26.5,N/A,,Clear,350,2013-07-03 00:55:00
6:15 PM,60.8,57.2,88,30.13,7.0,NNW,16.1,26.5,N/A,,Clear,340,2013-07-03 01:15:00
6:35 PM,62.6,57.2,82,30.11,10.0,NNW,16.1,27.6,N/A,,Clear,340,2013-07-03 01:35:00
6:55 PM,62.6,57.2,82,30.11,7.0,NNW,17.3,23.0,N/A,,Clear,340,2013-07-03 01:55:00
7:15 PM,60.8,57.2,88,30.11,7.0,NNW,20.7,27.6,N/A,,Clear,340,2013-07-03 02:15:00
7:35 PM,60.8,57.2,88,30.11,7.0,North,16.1,24.2,N/A,,Clear,350,2013-07-03 02:35:00
7:55 PM,60.8,57.2,88,30.11,7.0,North,13.8,21.9,N/A,,Clear,350,2013-07-03 02:55:00
8:15 PM,60.8,55.4,82,30.11,7.0,North,12.7,19.6,N/A,,Clear,350,2013-07-03 03:15:00
8:35 PM,59.0,55.4,88,30.10,7.0,NNW,13.8,-,N/A,,Clear,340,2013-07-03 03:35:00
8:55 PM,59.0,55.4,88,30.11,7.0,North,12.7,18.4,N/A,,Clear,350,2013-07-03 03:55:00
9:15 PM,59.0,55.4,88,30.12,7.0,North,12.7,-,N/A,,Clear,350,2013-07-03 04:15:00
9:35 PM,59.0,55.4,88,30.12,7.0,North,11.5,-,N/A,,Clear,350,2013-07-03 04:35:00
9:55 PM,59.0,55.4,88,30.14,7.0,North,12.7,21.9,N/A,,Clear,350,2013-07-03 04:55:00
10:15 PM,59.0,55.4,88,30.14,7.0,North,12.7,20.7,N/A,,Scattered Clouds,350,2013-07-03 05:15:00
10:35 PM,59.0,55.4,88,30.14,7.0,North,12.7,19.6,N/A,,Scattered Clouds,350,2013-07-03 05:35:00
10:55 PM,59.0,55.4,88,30.14,7.0,North,11.5,17.3,N/A,,Scattered Clouds,350,2013-07-03 05:55:00
11:15 PM,59.0,55.4,88,30.14,10.0,North,11.5,18.4,N/A,,Clear,360,2013-07-03 06:15:00
11:35 PM,59.0,55.4,88,30.15,10.0,North,12.7,20.7,N/A,,Clear,350,2013-07-03 06:35:00
11:55 PM,59.0,55.4,88,30.15,10.0,North,12.7,18.4,N/A,,Clear,350,2013-07-03 06:55:00